COSMOS 2475 (743)

Last updated on Wed Nov 05 2025 00:03:19 GMT+0000 (Coordinated Universal Time)

1 37869U 11064C 25308.44585492 .00000015 00000+0 00000+0 0 9998 2 37869 65.1556 80.5633 0024984 246.9735 80.0439 2.13101467108975
UTC large
Height (km)
Speed (km/s)
/
Latitude / Longitude
Inclination (degrees)
Orbital Period (minutes)
Azimuth
Elevation
Range (km)
Doppler Factor

Next 0 passes for location: London (51.5072 / 0.1276)

Sorry there are no passes over London.